�N����,����,�~����,�C��,���x,�C��,����,���ϕ���,�ő�u�ԕ���,�ő厞����,���˗�,�I�_���x,�n�����x,�ő啗���N��,DTYPE
"23/10/15","00:10",0.2,16.2,95.6,1003.8,303.0,1.1,1.6,316.4,0.00,15.5,18.5,"00:04:20",1
"23/10/15","00:20",0.2,16.3,95.7,1003.6,292.9,1.2,1.9,316.2,0.00,15.7,18.6,"00:19:24",1
"23/10/15","00:30",0.2,16.2,95.8,1003.6,295.4,1.2,2.0,317.7,0.00,15.6,18.5,"00:25:32",1
"23/10/15","00:40",0.2,16.2,95.9,1003.6,290.2,1.1,1.7,307.1,0.00,15.6,18.6,"00:32:10",1
"23/10/15","00:50",0.4,16.2,96.0,1003.6,292.3,1.1,1.6,306.3,0.00,15.6,18.4,"00:48:50",1
"23/10/15","01:00",0.2,16.2,96.1,1003.1,305.0,1.3,2.0,315.7,0.00,15.6,18.4,"00:52:12",1
"23/10/15","01:10",0.2,16.2,96.2,1003.4,301.1,1.1,1.6,323.5,0.00,15.6,18.6,"01:04:50",1
"23/10/15","01:20",0.2,16.2,96.2,1002.9,293.5,1.0,1.4,318.6,0.00,15.6,18.5,"01:10:32",1
"23/10/15","01:30",0.4,16.2,96.3,1002.9,295.4,1.1,1.4,311.7,0.00,15.7,18.6,"01:25:00",1
"23/10/15","01:40",0.2,16.2,96.4,1002.9,295.4,1.2,1.7,310.9,0.00,15.7,18.4,"01:37:22",1
"23/10/15","01:50",0.4,16.1,96.5,1002.6,294.1,1.2,1.8,308.6,0.00,15.6,18.3,"01:46:58",1
"23/10/15","02:00",0.2,16.0,96.5,1002.4,288.8,1.1,1.2,293.6,0.00,15.5,18.3,"01:56:54",1
"23/10/15","02:10",0.2,16.0,96.6,1001.9,283.5,1.0,1.4,313.4,0.00,15.5,18.4,"02:09:20",1
"23/10/15","02:20",0.0,16.0,96.7,1001.9,280.3,1.1,1.6,296.6,0.00,15.5,18.3,"02:10:26",1
"23/10/15","02:30",0.0,16.0,96.7,1001.7,283.6,1.1,1.4,251.4,0.00,15.5,18.3,"02:21:08",1
"23/10/15","02:40",0.4,16.1,96.8,1001.9,301.0,1.3,1.9,316.6,0.00,15.6,18.4,"02:33:48",1
"23/10/15","02:50",0.2,16.0,96.9,1001.2,323.0,1.1,1.8,312.1,0.00,15.5,18.3,"02:40:16",1
"23/10/15","03:00",0.2,16.0,97.0,1001.5,284.5,1.1,1.6,305.0,0.00,15.6,18.4,"02:50:56",1
"23/10/15","03:10",0.2,16.1,97.0,1001.7,272.6,1.2,2.2,257.5,0.00,15.7,18.2,"03:03:38",1
"23/10/15","03:20",0.0,16.1,97.0,1001.7,292.2,1.2,1.9,326.2,0.00,15.7,18.3,"03:12:56",1
"23/10/15","03:30",0.2,16.1,97.1,1001.7,311.2,1.3,2.0,321.2,0.00,15.7,18.4,"03:27:54",1
"23/10/15","03:40",0.2,16.1,97.2,1001.7,312.6,1.5,2.2,308.3,0.00,15.7,18.4,"03:39:22",1
"23/10/15","03:50",0.0,16.1,97.2,1001.5,294.6,1.3,2.0,315.2,0.00,15.7,18.3,"03:41:56",1
"23/10/15","04:00",0.0,16.1,97.3,1001.5,309.3,1.3,2.5,323.7,0.00,15.7,18.2,"03:55:32",1
"23/10/15","04:10",0.4,16.1,97.3,1001.2,296.7,1.3,2.1,315.0,0.00,15.7,18.5,"04:08:14",1
"23/10/15","04:20",0.0,16.2,97.4,1001.5,292.0,1.1,1.7,305.6,0.00,15.8,18.3,"04:18:20",1
"23/10/15","04:30",0.0,16.2,97.4,1001.2,311.0,1.5,2.1,309.6,0.00,15.8,18.4,"04:22:06",1
"23/10/15","04:40",0.0,16.1,97.5,1001.2,314.7,1.7,2.8,320.5,0.00,15.7,18.4,"04:37:42",1
"23/10/15","04:50",0.0,16.1,97.6,1001.7,321.2,2.0,2.8,331.7,0.00,15.8,18.5,"04:44:56",1
"23/10/15","05:00",0.0,16.1,97.6,1001.0,325.3,2.1,3.1,334.5,0.00,15.8,18.5,"04:56:06",1
"23/10/15","05:10",0.0,16.1,97.7,1001.2,316.5,1.8,2.7,318.0,0.00,15.8,18.3,"05:02:28",1
"23/10/15","05:20",0.0,16.2,97.7,1001.0,299.7,0.8,1.9,327.6,0.00,15.9,18.3,"05:11:28",1
"23/10/15","05:30",0.0,16.2,97.7,1001.2,293.0,1.1,1.7,284.4,0.00,15.9,18.3,"05:24:10",1
"23/10/15","05:40",0.0,16.2,97.7,1000.8,273.7,1.2,1.9,248.8,0.00,15.9,18.3,"05:33:04",1
"23/10/15","05:50",0.0,16.1,97.8,1000.8,286.4,0.7,1.4,313.7,0.00,15.8,18.0,"05:40:24",1
"23/10/15","06:00",0.0,16.0,97.8,1000.8,294.4,0.5,1.2,291.4,0.00,15.7,18.3,"05:59:04",1
"23/10/15","06:10",0.0,16.0,97.9,1001.5,289.2,1.1,1.4,312.9,0.00,15.7,18.2,"06:02:08",1
"23/10/15","06:20",0.0,16.0,97.9,1001.0,304.2,1.2,1.7,318.5,0.00,15.7,18.3,"06:17:44",1
"23/10/15","06:30",0.0,16.0,97.9,1001.2,320.3,1.2,1.7,317.7,0.00,15.7,18.2,"06:28:16",1
"23/10/15","06:40",0.0,16.0,98.0,1001.2,326.1,1.6,2.7,333.4,0.00,15.7,18.3,"06:39:52",1
"23/10/15","06:50",0.0,16.1,97.6,1001.0,328.7,1.7,2.5,327.7,0.00,15.8,18.5,"06:43:12",1
"23/10/15","07:00",0.0,16.1,98.0,1001.5,296.5,1.5,2.7,315.9,0.01,15.8,18.3,"06:50:32",1
"23/10/15","07:10",0.0,16.3,97.6,1001.7,302.6,1.3,1.8,314.4,0.04,16.0,18.2,"07:01:12",1
"23/10/15","07:20",0.0,16.6,98.1,1001.7,286.5,1.1,1.9,276.4,0.09,16.3,18.2,"07:14:00",1
"23/10/15","07:30",0.0,16.8,97.5,1001.7,277.0,0.7,1.7,248.3,0.06,16.4,18.4,"07:21:04",1
"23/10/15","07:40",0.0,16.8,98.1,1001.2,308.9,1.3,3.3,333.2,0.15,16.5,18.4,"07:36:00",1
"23/10/15","07:50",0.0,17.3,97.5,1001.2,291.9,1.2,2.2,336.1,0.19,16.9,18.3,"07:44:48",1
"23/10/15","08:00",0.0,17.6,97.9,1001.2,309.9,1.2,2.6,330.7,0.20,17.3,18.2,"07:53:04",1
"23/10/15","08:10",0.0,17.3,97.4,1001.2,267.5,1.3,3.5,234.9,0.18,16.9,18.4,"08:07:36",1
"23/10/15","08:20",0.0,17.8,97.9,1001.2,240.9,2.1,3.3,214.1,0.34,17.5,18.4,"08:14:08",1
"23/10/15","08:30",0.0,18.3,97.8,1001.2,277.5,1.3,2.7,247.0,0.35,18.0,18.4,"08:24:16",1
"23/10/15","08:40",0.0,18.1,97.5,1001.0,300.9,1.1,2.7,351.9,0.25,17.7,18.4,"08:30:48",1
"23/10/15","08:50",0.0,18.8,97.4,1001.2,252.4,0.5,1.8,252.4,0.29,18.4,18.5,"08:45:36",1
"23/10/15","09:00",0.0,19.0,97.2,1001.0,327.8,0.5,1.3,320.6,0.27,18.6,18.5,"08:51:44",1
"23/10/15","09:10",0.0,19.3,96.9,1001.0,313.0,0.7,1.7,325.8,0.26,18.8,18.4,"09:01:52",1
"23/10/15","09:20",0.0,18.3,96.5,1001.0,262.1,1.6,4.0,251.0,0.34,17.8,18.6,"09:19:52",1
"23/10/15","09:30",0.0,18.4,96.2,1001.2,247.1,2.5,4.5,252.5,0.46,17.8,18.6,"09:27:12",1
"23/10/15","09:40",0.0,18.7,94.9,1001.0,246.7,2.3,4.5,242.2,0.46,17.9,18.7,"09:39:20",1
"23/10/15","09:50",0.0,19.2,94.5,1000.8,242.1,2.3,3.7,254.5,0.46,18.3,18.6,"09:47:28",1
"23/10/15","10:00",0.0,19.8,91.5,1000.3,254.8,2.3,4.8,242.3,0.46,18.4,18.7,"09:58:56",1
"23/10/15","10:10",0.0,20.4,87.0,1000.8,237.6,3.0,5.5,224.4,0.47,18.2,18.8,"10:01:36",1
"23/10/15","10:20",0.0,21.3,81.5,1000.3,251.5,2.5,5.6,211.0,0.48,18.0,18.8,"10:11:04",1
"23/10/15","10:30",0.0,21.8,79.1,1000.3,266.3,2.1,5.2,235.4,0.44,18.1,18.7,"10:22:08",1
"23/10/15","10:40",0.0,21.7,77.6,999.8,246.5,2.5,5.1,236.0,0.37,17.7,18.9,"10:31:36",1
"23/10/15","10:50",0.0,22.1,75.7,1000.0,264.8,2.0,3.5,244.0,0.38,17.7,18.8,"10:41:44",1
"23/10/15","11:00",0.0,22.2,74.2,999.6,247.2,2.8,5.5,238.1,0.39,17.4,19.0,"10:57:12",1
"23/10/15","11:10",0.0,22.4,72.4,999.3,239.5,2.6,6.0,213.4,0.36,17.2,19.0,"11:02:00",1
"23/10/15","11:20",0.0,21.6,72.4,999.6,242.2,2.5,4.8,240.3,0.10,16.5,19.0,"11:18:24",1
"23/10/15","11:30",0.0,22.2,73.0,999.3,250.1,1.7,3.6,246.3,0.26,17.2,19.1,"11:22:48",1
"23/10/15","11:40",0.0,23.3,67.4,999.1,289.4,1.5,4.0,248.1,0.39,17.0,19.2,"11:32:24",1
"23/10/15","11:50",0.0,23.5,62.2,999.1,294.8,1.8,4.9,5.3,0.33,15.9,19.1,"11:46:24",1
"23/10/15","12:00",0.0,22.9,63.0,998.6,257.6,2.1,4.3,252.8,0.15,15.5,19.2,"11:50:48",1
"23/10/15","12:10",0.0,22.4,61.3,998.9,320.3,2.2,5.0,332.5,0.13,14.6,19.2,"12:04:00",1
"23/10/15","12:20",0.0,22.7,63.6,998.9,272.4,1.8,3.6,323.7,0.19,15.5,19.3,"12:12:32",1
"23/10/15","12:30",0.0,23.2,64.8,998.6,247.6,2.0,4.4,237.6,0.43,16.3,19.5,"12:22:40",1
"23/10/15","12:40",0.0,23.1,59.6,998.9,279.6,2.0,5.9,342.7,0.21,14.9,19.5,"12:32:08",1
"23/10/15","12:50",0.0,22.3,60.3,998.6,277.2,1.7,3.4,304.9,0.06,14.3,19.5,"12:46:56",1
"23/10/15","13:00",0.0,21.9,62.3,998.9,307.2,1.8,3.4,333.5,0.06,14.4,19.5,"12:56:56",1
"23/10/15","13:10",0.0,21.1,64.5,998.9,285.2,2.1,4.2,318.0,0.06,14.2,19.5,"13:03:20",1
"23/10/15","13:20",0.0,20.4,64.7,999.3,249.7,2.6,5.0,246.8,0.23,13.6,19.4,"13:18:56",1
"23/10/15","13:30",0.0,21.1,63.1,999.1,278.6,2.0,4.1,301.2,0.28,13.9,19.7,"13:25:20",1
"23/10/15","13:40",0.0,22.6,61.2,998.9,292.9,1.6,4.2,339.6,0.44,14.8,19.5,"13:31:52",1
"23/10/15","13:50",0.0,23.1,59.6,998.9,288.2,1.7,3.9,324.5,0.44,14.9,19.6,"13:41:28",1
"23/10/15","14:00",0.0,23.8,59.5,998.9,317.3,1.6,4.7,335.5,0.42,15.5,19.7,"13:56:32",1
"23/10/15","14:10",0.0,22.7,63.1,998.9,4.1,2.3,4.8,329.8,0.22,15.4,19.7,"14:01:36",1
"23/10/15","14:20",0.0,21.6,68.0,999.3,5.2,1.7,3.3,15.9,0.10,15.5,19.9,"14:13:36",1
"23/10/15","14:30",0.0,21.1,70.0,999.3,348.4,1.6,3.2,338.0,0.08,15.5,19.8,"14:28:48",1
"23/10/15","14:40",0.0,20.8,70.1,999.1,306.3,1.6,2.9,321.5,0.09,15.2,20.0,"14:34:32",1
"23/10/15","14:50",0.0,20.8,70.7,999.6,290.2,1.5,2.9,343.5,0.07,15.3,20.0,"14:48:48",1
"23/10/15","15:00",0.0,21.7,70.2,999.3,295.8,1.3,2.9,250.7,0.24,16.1,19.9,"14:57:12",1
"23/10/15","15:10",0.0,22.7,63.8,999.8,308.4,1.2,2.6,351.4,0.21,15.5,20.0,"15:09:36",1
"23/10/15","15:20",0.0,22.3,61.9,1000.0,302.9,1.6,3.9,329.4,0.09,14.7,20.0,"15:12:32",1
"23/10/15","15:30",0.0,21.8,63.9,999.8,297.7,1.3,2.8,257.9,0.07,14.7,19.8,"15:26:16",1
"23/10/15","15:40",0.0,22.6,64.6,1000.0,293.1,1.2,2.7,266.8,0.16,15.6,19.9,"15:39:52",1
"23/10/15","15:50",0.0,22.7,62.4,999.8,295.0,1.2,3.5,237.8,0.10,15.2,19.9,"15:40:24",1
"23/10/15","16:00",0.0,22.4,62.6,1000.0,281.8,1.5,3.4,258.8,0.08,15.0,20.1,"15:50:48",1
"23/10/15","16:10",0.0,22.3,63.3,999.8,254.4,2.0,4.0,235.0,0.06,15.0,19.9,"16:09:44",1
"23/10/15","16:20",0.0,22.2,64.3,999.6,256.0,1.2,2.8,239.7,0.04,15.2,20.0,"16:10:16",1
"23/10/15","16:30",0.0,22.0,64.4,999.8,303.5,1.6,3.5,332.3,0.03,15.0,20.1,"16:25:36",1
"23/10/15","16:40",0.0,21.7,66.1,1000.0,313.0,1.6,2.6,245.1,0.01,15.1,19.9,"16:30:16",1
"23/10/15","16:50",0.0,20.9,68.1,1000.3,331.7,2.0,3.7,325.7,0.00,14.8,20.1,"16:45:36",1
"23/10/15","17:00",0.0,20.3,70.6,1000.5,321.4,1.5,2.6,340.9,0.00,14.8,20.1,"16:51:04",1
"23/10/15","17:10",0.0,19.6,73.0,1000.3,324.8,1.6,3.2,320.6,0.00,14.7,20.0,"17:04:48",1
"23/10/15","17:20",0.0,18.9,75.1,1000.8,317.1,1.0,1.9,324.8,0.00,14.4,19.9,"17:14:16",1
"23/10/15","17:30",0.0,18.3,77.0,1000.8,315.9,0.8,1.4,340.6,0.00,14.2,20.0,"17:26:16",1
"23/10/15","17:40",0.0,17.8,79.1,1001.0,299.6,1.1,1.7,328.3,0.00,14.2,19.7,"17:34:00",1
"23/10/15","17:50",0.0,17.4,80.8,1001.2,312.8,1.3,2.9,339.8,0.00,14.1,19.9,"17:42:56",1
"23/10/15","18:00",0.0,17.1,81.9,1001.5,308.1,1.2,2.5,331.5,0.00,14.0,19.8,"17:50:32",1
"23/10/15","18:10",0.0,16.8,82.8,1001.9,302.5,1.1,2.9,329.6,0.00,13.9,19.8,"18:02:08",1
"23/10/15","18:20",0.0,16.5,83.5,1001.7,302.9,1.0,1.6,318.0,0.00,13.7,19.6,"18:14:40",1
"23/10/15","18:30",0.0,16.4,84.4,1002.2,312.6,1.5,2.7,338.0,0.00,13.8,19.7,"18:23:12",1
"23/10/15","18:40",0.0,16.2,85.0,1002.4,302.0,1.5,3.1,334.2,0.00,13.7,19.7,"18:37:14",1
"23/10/15","18:50",0.0,16.2,85.4,1002.4,305.5,1.7,3.1,340.3,0.00,13.8,19.7,"18:47:18",1
"23/10/15","19:00",0.0,16.1,85.7,1002.9,318.4,2.2,3.4,333.4,0.00,13.7,19.5,"18:57:18",1
"23/10/15","19:10",0.0,16.2,86.0,1002.9,316.4,2.6,3.9,331.1,0.00,13.9,19.8,"19:00:40",1
"23/10/15","19:20",0.0,16.0,86.2,1002.9,308.2,2.1,3.4,322.2,0.00,13.7,19.5,"19:11:14",1
"23/10/15","19:30",0.0,15.8,86.2,1002.9,310.6,2.0,3.1,327.4,0.00,13.5,19.4,"19:28:54",1
"23/10/15","19:40",0.0,16.2,85.5,1003.8,318.7,2.2,3.1,337.6,0.00,13.8,19.4,"19:36:26",1
"23/10/15","19:50",0.0,16.7,83.8,1003.6,311.6,2.0,3.6,329.3,0.00,14.0,19.2,"19:42:40",1
"23/10/15","20:00",0.0,16.9,82.4,1003.6,305.2,1.7,3.4,336.2,0.00,13.9,19.3,"19:56:24",1
"23/10/15","20:10",0.2,17.9,79.7,1003.4,296.7,2.1,6.3,347.9,0.00,14.4,19.4,"20:05:44",1
"23/10/15","20:20",0.0,18.1,77.3,1003.6,291.1,1.5,2.5,322.3,0.00,14.1,19.4,"20:19:04",1
"23/10/15","20:30",0.0,17.9,76.9,1003.6,283.2,1.2,1.8,327.0,0.00,13.8,19.3,"20:27:04",1
"23/10/15","20:40",0.0,17.9,76.8,1003.6,291.6,1.1,1.9,276.4,0.00,13.8,19.1,"20:34:08",1
"23/10/15","20:50",0.0,17.6,77.1,1003.8,262.5,0.7,2.2,305.2,0.00,13.6,19.2,"20:43:44",1
"23/10/15","21:00",0.0,17.2,78.4,1003.6,179.8,0.5,1.3,128.9,0.00,13.5,19.1,"20:55:36",1
"23/10/15","21:10",0.0,16.8,80.5,1003.6,202.3,0.5,1.2,258.5,0.00,13.5,19.1,"21:00:56",1
"23/10/15","21:20",0.0,16.5,81.9,1004.1,231.9,0.5,1.2,261.9,0.00,13.4,19.2,"21:18:32",1
"23/10/15","21:30",0.0,16.2,83.2,1004.3,273.8,0.7,1.9,336.3,0.00,13.4,19.1,"21:24:56",1
"23/10/15","21:40",0.0,15.8,84.3,1004.5,297.8,1.0,1.8,317.3,0.00,13.2,19.2,"21:34:56",1
"23/10/15","21:50",0.0,15.4,85.1,1004.3,293.1,0.6,1.4,252.4,0.00,13.0,19.0,"21:41:12",1
"23/10/15","22:00",0.0,15.4,86.2,1004.3,316.2,1.2,1.8,268.4,0.00,13.1,18.9,"21:51:12",1
"23/10/15","22:10",0.0,15.1,86.9,1004.3,310.5,0.8,1.7,316.7,0.00,13.0,19.1,"22:00:08",1
"23/10/15","22:20",0.0,14.9,87.7,1004.1,327.4,1.2,2.4,309.8,0.00,12.9,19.0,"22:10:40",1
"23/10/15","22:30",0.0,14.5,88.3,1004.3,297.0,1.1,2.0,320.9,0.00,12.6,19.1,"22:28:08",1
"23/10/15","22:40",0.0,14.1,89.0,1004.3,281.0,0.8,1.9,314.7,0.00,12.4,18.9,"22:34:08",1
"23/10/15","22:50",0.0,14.1,89.7,1004.3,300.3,1.2,1.8,324.4,0.00,12.5,18.7,"22:45:24",1
"23/10/15","23:00",0.0,14.0,90.3,1004.5,316.7,1.6,2.0,325.3,0.00,12.5,18.8,"22:52:26",1
"23/10/15","23:10",0.0,13.9,90.8,1004.3,305.1,0.8,1.8,318.6,0.00,12.5,18.7,"23:01:04",1
"23/10/15","23:20",0.0,13.7,91.3,1004.5,301.4,1.1,2.0,325.1,0.00,12.3,18.7,"23:19:54",1
"23/10/15","23:30",0.0,13.4,91.6,1004.8,298.7,1.0,1.7,323.8,0.00,12.1,18.7,"23:20:40",1
"23/10/15","23:40",0.0,13.1,92.0,1004.8,290.4,1.2,2.4,321.9,0.00,11.9,18.7,"23:34:42",1
"23/10/15","23:50",0.0,13.1,92.4,1004.5,294.7,1.0,1.6,304.8,0.00,11.9,18.5,"23:45:36",1
"23/10/15","24:00",0.0,13.1,92.8,1004.8,309.9,1.7,2.7,326.0,0.00,12.0,18.7,"23:57:12",1
